Tracking 31027 objects as of 19-Jul-2025
HD Live streaming from Space Station
objects crossing your sky now

COSMOS 2251 DEB

Track COSMOS 2251 DEB now!
10-day predictions


NORAD ID: 34070
Int'l Code: 1993-036KH
Perigee: 644.4 km
Apogee: 680.0 km
Inclination: 74.0 °
Period: 97.8 minutes
Semi major axis: 7033 km
RCS: 0.019 m2 (small)
Launch date: June 16, 1993
Source: Commonwealth of Independent States (former USSR) (CIS)
Launch site: PLESETSK MISSILE AND SPACE COMPLEX (PKMTR)

Note: This is SATELLITE DEBRIS
Your satellite tracking list
GEOTAIL
Track 1 satellite(s)




NASA's NSSDC Master Catalog

Two Line Element Set (TLE):
1 34070U 93036KH  25199.55508542  .00007101  00000-0  11323-2 0  9996
2 34070  74.0033  44.0882 0025301 185.5109 204.6824 14.71893146864423
Source of the keplerian elements: AFSPC